Weather History for North Padre Island, TX

Change the Weather History Date:

Saturday, December 3, 2011

  Actual Average Record
Temperature  
Mean Temperature 74 °F -  
Max Temperature 75 °F - - ()
Min Temperature 73 °F - - ()
Cooling Degree Days 9    
Growing Degree Days 24 (Base 50)    
Moisture  
Dew Point 66 °F    
Average Humidity 73    
Maximum Humidity 83    
Minimum Humidity 65    
Precipitation  
Precipitation 0.00 in - - ()
Sea Level Pressure  
Sea Level Pressure 29.99 in    
Wind  
Wind Speed 25 mph (SE)    
Max Wind Speed 30 mph    
Max Gust Speed 33 mph    
Visibility 7 miles    
Events      
T = Trace of Precipitation, MM = Missing Value Source: NWS Daily Summary

Daily Weather History Graph

Daily Weather History Graph

Search for Another Location

Airport:

Trip Planner

Search our weather history database for the weather conditions in past years. The results will help you decide how hot, cold, wet, or windy it might be!

Date:

Astronomy

Dec. 03, 2011 Rise Set
Actual Time 7:00 AM CST 5:34 PM CST
Civil Twilight 6:35 AM CST 5:59 PM CST
Nautical Twilight 6:06 AM CST 6:28 PM CST
Astronomical Twilight 5:38 AM CST 6:56 PM CST
Moon 1:12 PM CST (12/3) 1:00 AM CST (12/3)
Length of Visible Light 11h 23m
Length of Day
10h 33m
Waxing Gibbous, 63% of the Moon is Illuminated
Dec 3
Waxing Gibbous
Dec 10
Full
Dec 17
Last Quarter
Dec 24
New
Jan 1
First Quarter

Hourly Weather History & Observations

Time (CST) Temp. Dew Point Humidity Pressure Visibility Wind Dir Wind Speed Gust Speed Precip Events Conditions
12:15 AM 73.4 °F 66.2 °F 78% 30.06 in 8.0 mi ESE 24.2 mph - N/A   Mostly Cloudy
12:35 AM 75.2 °F 66.2 °F 73% 30.06 in 8.0 mi ESE 24.2 mph 29.9 mph N/A   Mostly Cloudy
12:55 AM 75.2 °F 64.4 °F 69% 30.06 in 9.0 mi SE 26.5 mph - N/A   Overcast
1:15 AM 75.2 °F 66.2 °F 73% 30.05 in 9.0 mi SE 25.3 mph - N/A   Overcast
1:35 AM 75.2 °F 66.2 °F 73% 30.04 in 8.0 mi SE 26.5 mph - N/A   Mostly Cloudy
1:55 AM 75.2 °F 66.2 °F 73% 30.04 in 8.0 mi SE 24.2 mph - N/A   Scattered Clouds
2:15 AM 75.2 °F 66.2 °F 73% 30.04 in 8.0 mi SE 23.0 mph - N/A   Overcast
2:55 AM 75.2 °F 66.2 °F 73% 30.02 in 8.0 mi SE 24.2 mph - N/A   Overcast
3:15 AM 75.2 °F 66.2 °F 73% 30.01 in 8.0 mi SE 25.3 mph - N/A   Overcast
3:35 AM 75.2 °F 64.4 °F 69% 30.01 in 9.0 mi SE 26.5 mph 32.2 mph N/A   Overcast
3:55 AM 75.2 °F 64.4 °F 69% 30.00 in 9.0 mi SE 28.8 mph - N/A   Overcast
4:15 AM 75.2 °F 64.4 °F 69% 30.00 in 8.0 mi SE 25.3 mph 32.2 mph N/A   Overcast
4:35 AM 75.2 °F 64.4 °F 69% 30.00 in 8.0 mi SE 28.8 mph - N/A   Overcast
4:55 AM 75.2 °F 64.4 °F 69% 29.99 in 8.0 mi SE 27.6 mph - N/A   Overcast
5:15 AM 75.2 °F 64.4 °F 69% 29.99 in 8.0 mi SE 27.6 mph - N/A   Overcast
5:35 AM 75.2 °F 64.4 °F 69% 29.99 in 8.0 mi SE 27.6 mph 33.4 mph N/A   Overcast
6:15 AM 75.2 °F 64.4 °F 69% 30.00 in 8.0 mi SE 27.6 mph - N/A   Overcast
6:35 AM 75.2 °F 62.6 °F 65% 30.00 in 8.0 mi SE 28.8 mph - N/A   Overcast
6:55 AM 75.2 °F 64.4 °F 69% 30.00 in 8.0 mi SE 28.8 mph - N/A   Overcast
7:15 AM 75.2 °F 64.4 °F 69% 30.01 in 6.0 mi SE 28.8 mph - N/A   Haze
7:35 AM 75.2 °F 64.4 °F 69% 30.01 in 6.0 mi SE 28.8 mph - N/A   Haze
7:55 AM 75.2 °F 64.4 °F 69% 30.01 in 6.0 mi SE 29.9 mph - N/A   Haze
8:15 AM 75.2 °F 64.4 °F 69% 30.02 in 6.0 mi SE 27.6 mph 33.4 mph N/A   Haze
8:35 AM 75.2 °F 64.4 °F 69% 30.03 in 6.0 mi SE 26.5 mph - N/A   Haze
8:55 AM 75.2 °F 64.4 °F 69% 30.03 in 6.0 mi SE 26.5 mph - N/A   Haze
9:15 AM 75.2 °F 64.4 °F 69% 30.04 in 7.0 mi SE 24.2 mph - N/A   Overcast
9:35 AM 73.4 °F 66.2 °F 78% 30.04 in 5.0 mi SE 25.3 mph - N/A   Haze
9:55 AM 75.2 °F 64.4 °F 69% 30.04 in 6.0 mi SE 24.2 mph - N/A   Haze
10:15 AM 75.2 °F 64.4 °F 69% 30.04 in 6.0 mi SE 25.3 mph - N/A   Haze
10:35 AM 75.2 °F 66.2 °F 73% 30.04 in 6.0 mi SE 24.2 mph 29.9 mph N/A   Haze
10:55 AM 75.2 °F 64.4 °F 69% 30.04 in 6.0 mi SSE 25.3 mph - N/A   Haze
11:15 AM 75.2 °F 66.2 °F 73% 30.03 in 6.0 mi SE 21.9 mph - N/A   Haze
11:35 AM 75.2 °F 64.4 °F 69% 30.03 in 6.0 mi SSE 21.9 mph - N/A   Haze
11:55 AM 75.2 °F 66.2 °F 73% 30.02 in 6.0 mi SE 21.9 mph - N/A   Haze
12:15 PM 75.2 °F 66.2 °F 73% 30.01 in 6.0 mi SSE 21.9 mph - N/A   Haze
12:35 PM 75.2 °F 66.2 °F 73% 29.99 in 6.0 mi SSE 23.0 mph - N/A   Haze
12:55 PM 75.2 °F 64.4 °F 69% 29.98 in 7.0 mi SE 23.0 mph - N/A   Clear
1:15 PM 75.2 °F 64.4 °F 69% 29.97 in 6.0 mi SE 23.0 mph - N/A   Haze
1:35 PM 75.2 °F 64.4 °F 69% 29.96 in 6.0 mi SE 23.0 mph - N/A   Haze
1:55 PM 75.2 °F 64.4 °F 69% 29.96 in 6.0 mi SSE 21.9 mph - N/A   Haze
2:15 PM 75.2 °F 66.2 °F 73% 29.95 in 6.0 mi SSE 21.9 mph - N/A   Haze
2:35 PM 75.2 °F 64.4 °F 69% 29.95 in 6.0 mi SSE 21.9 mph - N/A   Haze
2:55 PM 75.2 °F 64.4 °F 69% 29.94 in 7.0 mi SE 21.9 mph - N/A   Partly Cloudy
3:15 PM 75.2 °F 64.4 °F 69% 29.94 in 6.0 mi SE 20.7 mph - N/A   Haze
3:35 PM 73.4 °F 66.2 °F 78% 29.94 in 6.0 mi SSE 20.7 mph - N/A   Haze
3:55 PM 73.4 °F 66.2 °F 78% 29.94 in 6.0 mi SE 21.9 mph - N/A   Haze
4:15 PM 73.4 °F 66.2 °F 78% 29.94 in 6.0 mi SE 21.9 mph - N/A   Haze
4:35 PM 73.4 °F 66.2 °F 78% 29.94 in 5.0 mi SE 21.9 mph - N/A   Haze
4:55 PM 73.4 °F 66.2 °F 78% 29.94 in 6.0 mi SE 20.7 mph - N/A   Haze
5:15 PM 73.4 °F 66.2 °F 78% 29.94 in 5.0 mi SE 20.7 mph - N/A   Haze
5:35 PM 73.4 °F 66.2 °F 78% 29.94 in 6.0 mi SE 21.9 mph - N/A   Haze
5:55 PM 73.4 °F 66.2 °F 78% 29.94 in 7.0 mi SE 21.9 mph - N/A   Clear
6:15 PM 73.4 °F 68.0 °F 83% 29.94 in 7.0 mi SE 21.9 mph - N/A   Scattered Clouds
6:35 PM 73.4 °F 68.0 °F 83% 29.95 in 7.0 mi SE 23.0 mph - N/A   Mostly Cloudy
6:55 PM 73.4 °F 68.0 °F 83% 29.96 in 6.0 mi SE 23.0 mph - N/A   Haze
7:15 PM 73.4 °F 68.0 °F 83% 29.96 in 6.0 mi SE 24.2 mph - N/A   Haze
7:35 PM 73.4 °F 68.0 °F 83% 29.96 in - SE 23.0 mph - N/A   Partly Cloudy
7:55 PM 73.4 °F 68.0 °F 83% 29.97 in 6.0 mi SE 20.7 mph - N/A   Haze
8:15 PM 73.4 °F 68.0 °F 83% 29.98 in 6.0 mi SSE 20.7 mph - N/A   Haze
8:35 PM 73.4 °F 68.0 °F 83% 29.98 in 6.0 mi SE 21.9 mph - N/A   Haze
8:55 PM 73.4 °F 68.0 °F 83% 29.98 in 6.0 mi SE 21.9 mph - N/A   Haze
9:35 PM 73.4 °F 68.0 °F 83% 29.98 in 6.0 mi SE 25.3 mph - N/A   Haze
9:55 PM 73.4 °F 68.0 °F 83% 29.98 in 6.0 mi SE 23.0 mph - N/A   Haze
10:15 PM 73.4 °F 68.0 °F 83% 29.98 in 6.0 mi SE 19.6 mph - N/A   Haze
10:35 PM 73.4 °F 68.0 °F 83% 29.98 in 6.0 mi SE 18.4 mph - N/A   Haze
10:55 PM 73.4 °F 68.0 °F 83% 29.99 in 7.0 mi SSE 19.6 mph - N/A   Clear
11:15 PM 73.4 °F 68.0 °F 83% 29.99 in 7.0 mi SSE 15.0 mph - N/A   Scattered Clouds
11:35 PM 73.4 °F 68.0 °F 83% 29.99 in 7.0 mi SSE 13.8 mph - N/A   Overcast
11:55 PM 73.4 °F 68.0 °F 83% 29.98 in 6.0 mi SE 13.8 mph - N/A   Haze